Volver al catálogo

ATLAS 5 CENTAUR DEB

ActivoHEO
NORAD 44677·DEBRIS·🇺🇸 United States

Lanzado Oct 17, 2018 desde Cape Canaveral Space Force Station

Loading…

Próximos Pases (próximas 24 horas)

TLE

ActualizadoSource: Space-Track

Época: Sep 13, 2026, 21:13 UTC

1 44677U 18079AP  26256.88407251 -.00000148  00000-0  00000-0 0  9993
2 44677  13.1501  49.6442 4410283 284.0774  32.0174  1.78490729 47368

Sigue ATLAS 5 CENTAUR DEB en tiempo real con AllMySat

Download on the App Store